Vertical_Velocity
1 6 1 0 2 0 -1 2 2 2 0 -2 1 0 4 1 0 1 -1 3 -0 0 1 1 1 -0 -2 1 0 0 2 1 0
4 -1 -0 2 -1 -1 0 0 2 3 -1 3 3 1 -2 -3 0 -0 -3 3 2 1 1 -1 -1 2 2 -1 -0 -1 1 1 -0
-4 -1 -0 2 1 1 -0 -3 -3 -3 3 -1 2 0 1 -3 2 -2 0 -0 2 -0 1 0 0 -0 -0 2 1 1 0 1 2
-2 3 3 -1 -1 2 -0 3 2 1 -4 2 1 0 -2 0 4 1 -2 -4 -2 -1 1 1 0 1 -1 -1 1 0 1 -3 0
1 -0 -3 -3 1 3 0 1 1 3 -1 0 -2 4 -2 -0 4 -2 1 3 -1 -1 1 -2 2 1 0 4 -1 1 2 -1 -0
0 -1 0 -1 2 -1 0 -1 1 2 1 1 1 0 -0 1 4 3 -0 2 -0 -2 -3 -1 0 -0 0 0 2 -1 0 2 -3
-3 0 1 3 2 -1 -3 -1 2 1 0 3 1 1 2 0 1 2 -0 -2 1 2 -1 -1 -1 -2 -1 2 0 2 -0 2 2
0 2 0 -1 -1 1 4 2 2 2 0 0 1 3 1 -1 1 -0 -1 1 2 0 1 1 -2 -3 -5 -0 -3 -1 1 2 2
4 1 1 2 0 0 -1 0 -2 3 -5 1 0 0 -1 -3 1 1 -2 1 1 -2 -1 -0 -0 4 -1 -3 -2 -1 -1 2 2
-3 -2 1 0 0 1 1 -1 -1 -1 3 3 -0 -1 -3 -1 3 -3 0 -2 -2 -2 1 -0 1 2 4 3 1 -3 -4 1 1
-3 -2 -1 -1 -2 -2 0 2 2 0 -2 2 0 -1 2 3 1 -0 2 -2 -1 0 -5 0 -2 -0 1 3 2 3 -1 -7 -1
1 0 -1 -2 -1 -0 -1 -3 -2 1 3 1 -5 -0 -1 2 1 1 -3 3 -1 -3 2 0 -2 1 -4 -1 1 -1 -1 3 -2
-1 -2 -2 -2 -1 -2 -2 -3 -2 -1 2 2 -2 -1 -2 -1 3 0 1 4 2 1 -0 -4 7 -10 1 -2 -3 -0 0 1 3
-1 -1 -3 -2 -1 -0 -0 -2 -4 -2 1 -1 -2 1 1 -2 1 -3 1 1 1 2 4 5 1 -1 -1 -2 -1 -2 -3 2 -3
-0 0 -0 -1 -1 -3 -3 -2 1 1 1 -2 -7 -5 -3 -2 -4 -1 -2 -3 -4 -3 1 3 2 1 3 1 -2 0 -2 1 2
-1 0 -0 -0 -1 -0 1 -1 -2 -2 2 3 -2 0 -1 -3 -5 -3 -2 -4 -3 -6 -1 -2 -1 5 3 0 0 -2 2 2 -3
-0 1 2 0 -1 -2 -2 -1 -2 -1 0 -1 3 -5 3 -2 3 1 -1 1 0 1 0 -1 -2 -1 -1 1 0 3 1 3 1
0 1 1 0 0 0 -0 1 -1 -5 -3 3 -4 -2 -8 -0 -1 -2 -2 -2 -3 -1 1 3 -2 -2 -0 -3 -0 1 1 6 -5
3 2 1 2 -1 0 1 3 5 3 -1 3 4 4 5 -0 5 5 -4 -2 -2 -4 -3 -1 -2 -1 2 1 -1 -3 2 3 2
2 2 1 1 0 -0 -1 -3 -1 1 -1 0 2 3 3 2 1 15 -1 0 -5 3 2 -2 0 -4 -3 -0 2 3 -2 -3 -3
Height
5803 5805 5807 5808 5809 5809 5811 5813 5814 5815 5817 5818 5821 5823 5824 5825 5827 5829 5832 5832 5833 5836 5839 5840 5842 5844 5846 5848 5850 5852 5855 5857 5860
5801 5802 5803 5805 5806 5807 5808 5810 5811 5812 5812 5814 5817 5818 5820 5823 5825 5825 5828 5830 5831 5832 5834 5836 5838 5841 5842 5845 5848 5850 5852 5854 5856
5798 5799 5800 5802 5803 5804 5806 5807 5808 5809 5811 5811 5813 5815 5817 5820 5822 5822 5824 5825 5827 5829 5831 5833 5835 5837 5839 5841 5844 5847 5849 5851 5853
5795 5795 5795 5798 5799 5801 5802 5803 5805 5806 5809 5810 5810 5812 5813 5816 5819 5820 5820 5821 5824 5825 5827 5828 5831 5834 5835 5838 5840 5843 5845 5847 5850
5790 5793 5793 5793 5793 5796 5797 5799 5800 5801 5805 5806 5807 5809 5810 5813 5815 5817 5817 5818 5819 5821 5822 5825 5826 5829 5831 5833 5836 5838 5841 5843 5846
5785 5787 5788 5788 5789 5790 5791 5794 5795 5797 5799 5800 5801 5804 5806 5807 5809 5811 5813 5814 5816 5817 5818 5820 5823 5824 5826 5828 5832 5834 5836 5839 5841
5780 5781 5782 5781 5783 5785 5787 5787 5787 5791 5793 5794 5795 5797 5799 5801 5803 5805 5806 5808 5810 5812 5815 5816 5817 5819 5821 5824 5827 5829 5832 5834 5836
5771 5773 5774 5776 5778 5778 5778 5779 5780 5784 5786 5787 5789 5791 5793 5794 5796 5798 5800 5802 5803 5806 5808 5810 5813 5814 5816 5818 5820 5823 5826 5829 5831
5763 5764 5765 5767 5769 5770 5772 5772 5775 5777 5778 5780 5782 5783 5786 5787 5789 5791 5793 5795 5797 5799 5801 5803 5805 5808 5811 5813 5815 5818 5821 5822 5826
5755 5756 5757 5759 5760 5761 5763 5765 5767 5768 5769 5770 5772 5774 5777 5780 5780 5783 5786 5788 5790 5793 5794 5796 5798 5801 5804 5807 5809 5812 5815 5817 5820
5745 5747 5748 5750 5751 5753 5754 5755 5757 5759 5761 5762 5763 5765 5768 5769 5772 5774 5777 5779 5781 5785 5786 5789 5790 5793 5796 5799 5802 5803 5806 5811 5813
5733 5735 5737 5738 5741 5743 5745 5746 5747 5748 5750 5752 5754 5756 5757 5758 5762 5765 5766 5770 5773 5775 5778 5780 5782 5785 5787 5790 5793 5794 5797 5800 5804
5721 5723 5724 5727 5729 5730 5732 5734 5737 5738 5739 5740 5742 5745 5746 5747 5750 5753 5754 5757 5760 5764 5767 5770 5772 5775 5778 5780 5784 5787 5789 5792 5795
5709 5710 5712 5714 5716 5718 5719 5722 5724 5726 5728 5728 5730 5733 5735 5736 5738 5741 5743 5745 5749 5752 5755 5758 5760 5763 5766 5770 5773 5777 5779 5782 5785
5695 5696 5697 5699 5702 5704 5706 5708 5711 5713 5715 5715 5717 5720 5722 5724 5726 5729 5731 5733 5737 5739 5742 5745 5747 5751 5753 5757 5759 5765 5769 5771 5774
5682 5683 5684 5686 5688 5690 5692 5693 5696 5699 5701 5702 5703 5705 5707 5710 5712 5714 5717 5720 5723 5725 5729 5732 5733 5736 5739 5742 5747 5750 5755 5759 5762
5667 5668 5669 5670 5672 5675 5676 5678 5679 5682 5684 5686 5687 5689 5692 5693 5695 5697 5699 5703 5705 5709 5712 5715 5719 5722 5725 5728 5731 5735 5739 5743 5748
5652 5653 5654 5655 5656 5658 5660 5661 5662 5663 5666 5668 5669 5671 5673 5675 5679 5680 5682 5685 5688 5691 5695 5698 5701 5705 5708 5711 5716 5719 5724 5727 5732
5636 5636 5637 5638 5639 5640 5642 5643 5645 5646 5648 5650 5652 5653 5655 5657 5661 5661 5661 5665 5669 5672 5676 5679 5682 5686 5690 5693 5698 5702 5706 5710 5714
5620 5620 5621 5622 5622 5623 5623 5624 5625 5625 5627 5629 5631 5633 5635 5637 5641 5645 5643 5645 5648 5652 5655 5657 5661 5665 5669 5673 5677 5682 5687 5691 5696